Wetterdaten: Samstag, 19.10.2013
Datum Zeit Temperatur Luftfeuchte Luftdruck Regen Wind Richtung Richtung Taupunkt Windchill Windben
19.10.2013 00:00 2,7 C 93 % 1018,8 hPa 0,0 l/m 0,0 km/h (0 Bft) NO 45 1,7 C 9,1 C 0,0 km/h (0 Bft)
19.10.2013 00:05 2,7 C 93 % 1018,6 hPa 0,0 l/m 0,0 km/h (0 Bft) NO 45 1,7 C 9,1 C 0,0 km/h (0 Bft)
19.10.2013 00:10 2,7 C 93 % 1018,6 hPa 0,0 l/m 0,0 km/h (0 Bft) NO 45 1,7 C 9,1 C 0,0 km/h (0 Bft)
19.10.2013 00:15 2,7 C 93 % 1018,6 hPa 0,0 l/m 0,0 km/h (0 Bft) NO 45 1,7 C 9,1 C 0,0 km/h (0 Bft)
19.10.2013 00:20 2,7 C 93 % 1018,6 hPa 0,0 l/m 0,0 km/h (0 Bft) NO 45 1,7 C 9,1 C 0,0 km/h (0 Bft)
19.10.2013 00:25 2,9 C 93 % 1018,6 hPa 0,0 l/m 0,0 km/h (0 Bft) NO 45 1,9 C 9,1 C 0,0 km/h (0 Bft)
19.10.2013 00:30 3,0 C 92 % 1018,6 hPa 0,0 l/m 0,0 km/h (0 Bft) NO 45 1,8 C 9,1 C 0,0 km/h (0 Bft)
19.10.2013 00:35 3,1 C 92 % 1018,6 hPa 0,0 l/m 0,0 km/h (0 Bft) NO 45 1,9 C 9,1 C 0,0 km/h (0 Bft)
19.10.2013 00:40 3,1 C 92 % 1018,6 hPa 0,0 l/m 0,0 km/h (0 Bft) NO 45 1,9 C 9,1 C 0,0 km/h (0 Bft)
19.10.2013 00:45 3,6 C 93 % 1018,5 hPa 0,0 l/m 0,0 km/h (0 Bft) NO 45 2,6 C 9,1 C 0,0 km/h (0 Bft)
19.10.2013 00:50 2,8 C 93 % 1018,5 hPa 0,0 l/m 0,0 km/h (0 Bft) NO 45 1,8 C 9,1 C 0,0 km/h (0 Bft)
19.10.2013 00:55 3,4 C 93 % 1018,5 hPa 0,0 l/m 0,0 km/h (0 Bft) NO 45 2,4 C 9,1 C 0,0 km/h (0 Bft)
19.10.2013 01:00 3,4 C 93 % 1018,5 hPa 0,0 l/m 0,0 km/h (0 Bft) NO 45 2,4 C 9,1 C 0,0 km/h (0 Bft)
19.10.2013 01:05 2,4 C 94 % 1018,3 hPa 0,0 l/m 0,0 km/h (0 Bft) NO 45 1,5 C 9,1 C 0,0 km/h (0 Bft)
19.10.2013 01:10 2,9 C 94 % 1018,3 hPa 0,0 l/m 0,0 km/h (0 Bft) NO 45 2,0 C 9,1 C 0,0 km/h (0 Bft)
19.10.2013 01:15 2,1 C 94 % 1018,3 hPa 0,0 l/m 0,0 km/h (0 Bft) NO 45 1,2 C 9,1 C 0,0 km/h (0 Bft)
19.10.2013 01:20 1,9 C 94 % 1018,3 hPa 0,0 l/m 0,0 km/h (0 Bft) NO 45 1,0 C 9,1 C 0,0 km/h (0 Bft)
19.10.2013 01:25 2,1 C 93 % 1018,3 hPa 0,0 l/m 0,0 km/h (0 Bft) NO 45 1,1 C 9,1 C 0,0 km/h (0 Bft)
19.10.2013 01:30 2,0 C 93 % 1018,3 hPa 0,0 l/m 0,0 km/h (0 Bft) NO 45 1,0 C 9,1 C 0,0 km/h (0 Bft)
19.10.2013 01:35 2,1 C 93 % 1018,3 hPa 0,0 l/m 0,0 km/h (0 Bft) NO 45 1,1 C 9,1 C 0,0 km/h (0 Bft)
19.10.2013 01:40 1,6 C 94 % 1018,3 hPa 0,0 l/m 0,0 km/h (0 Bft) NO 45 0,7 C 9,1 C 0,0 km/h (0 Bft)
19.10.2013 01:45 2,0 C 93 % 1018,4 hPa 0,0 l/m 0,0 km/h (0 Bft) NO 45 1,0 C 9,1 C 0,0 km/h (0 Bft)
19.10.2013 01:50 2,0 C 93 % 1018,4 hPa 0,0 l/m 0,0 km/h (0 Bft) NO 45 1,0 C 9,1 C 0,0 km/h (0 Bft)
19.10.2013 01:55 1,5 C 94 % 1018,4 hPa 0,0 l/m 0,0 km/h (0 Bft) NO 45 0,6 C 9,1 C 0,0 km/h (0 Bft)
19.10.2013 02:00 1,6 C 94 % 1018,4 hPa 0,0 l/m 0,0 km/h (0 Bft) NO 45 0,7 C 9,1 C 0,0 km/h (0 Bft)
19.10.2013 02:05 1,5 C 94 % 1018,4 hPa 0,0 l/m 0,0 km/h (0 Bft) NO 45 0,6 C 9,1 C 0,0 km/h (0 Bft)
19.10.2013 02:10 1,3 C 94 % 1018,3 hPa 0,0 l/m 0,0 km/h (0 Bft) NO 45 0,4 C 9,1 C 0,0 km/h (0 Bft)
19.10.2013 02:15 1,8 C 94 % 1018,3 hPa 0,0 l/m 0,0 km/h (0 Bft) NO 45 0,9 C 9,1 C 0,0 km/h (0 Bft)
19.10.2013 02:20 2,4 C 94 % 1018,3 hPa 0,0 l/m 0,0 km/h (0 Bft) NO 45 1,5 C 9,1 C 0,0 km/h (0 Bft)
19.10.2013 02:25 2,1 C 94 % 1018,3 hPa 0,0 l/m 0,0 km/h (0 Bft) NO 45 1,2 C 9,1 C 0,0 km/h (0 Bft)
19.10.2013 02:30 1,2 C 94 % 1018,2 hPa 0,0 l/m 0,0 km/h (0 Bft) NO 45 0,3 C 9,1 C 0,0 km/h (0 Bft)
19.10.2013 02:35 1,0 C 94 % 1018,2 hPa 0,0 l/m 0,0 km/h (0 Bft) NO 45 0,1 C 9,1 C 0,0 km/h (0 Bft)
19.10.2013 02:40 0,8 C 94 % 1018,2 hPa 0,0 l/m 0,0 km/h (0 Bft) NO 45 -0,1 C 9,1 C 0,0 km/h (0 Bft)
19.10.2013 02:45 0,7 C 94 % 1018,2 hPa 0,0 l/m 0,0 km/h (0 Bft) NO 45 -0,2 C 9,1 C 0,0 km/h (0 Bft)
19.10.2013 02:50 0,8 C 94 % 1018,2 hPa 0,0 l/m 0,0 km/h (0 Bft) NO 45 -0,1 C 9,1 C 0,0 km/h (0 Bft)
19.10.2013 02:55 0,6 C 94 % 1018,2 hPa 0,0 l/m 0,0 km/h (0 Bft) NO 45 -0,3 C 9,1 C 0,0 km/h (0 Bft)
19.10.2013 02:58 0,7 C 94 % 1018,2 hPa 0,0 l/m 0,0 km/h (0 Bft) NO 45 -0,2 C 9,1 C 0,0 km/h (0 Bft)
19.10.2013 03:00 1,7 C 94 % 1018,2 hPa 0,0 l/m 0,0 km/h (0 Bft) NO 45 0,8 C 9,1 C 0,0 km/h (0 Bft)
19.10.2013 03:05 1,1 C 94 % 1017,9 hPa 0,0 l/m 0,0 km/h (0 Bft) NO 45 0,2 C 9,1 C 0,0 km/h (0 Bft)
19.10.2013 03:10 0,7 C 94 % 1017,9 hPa 0,0 l/m 0,0 km/h (0 Bft) NO 45 -0,2 C 9,1 C 0,0 km/h (0 Bft)
19.10.2013 03:15 0,6 C 94 % 1017,9 hPa 0,0 l/m 0,0 km/h (0 Bft) NO 45 -0,3 C 9,1 C 0,0 km/h (0 Bft)
19.10.2013 03:20 0,6 C 94 % 1017,9 hPa 0,0 l/m 0,0 km/h (0 Bft) NO 45 -0,3 C 9,1 C 0,0 km/h (0 Bft)
19.10.2013 03:25 0,2 C 94 % 1017,8 hPa 0,0 l/m 0,0 km/h (0 Bft) NO 45 -0,6 C 9,1 C 0,0 km/h (0 Bft)
19.10.2013 03:30 0,5 C 94 % 1017,8 hPa 0,0 l/m 0,0 km/h (0 Bft) NO 45 -0,4 C 9,1 C 0,0 km/h (0 Bft)
19.10.2013 03:35 0,5 C 94 % 1017,8 hPa 0,0 l/m 0,0 km/h (0 Bft) NO 45 -0,4 C 9,1 C 0,0 km/h (0 Bft)
19.10.2013 03:40 0,3 C 94 % 1017,8 hPa 0,0 l/m 0,0 km/h (0 Bft) NO 45 -0,5 C 9,1 C 0,0 km/h (0 Bft)
19.10.2013 03:45 0,4 C 94 % 1017,6 hPa 0,0 l/m 0,0 km/h (0 Bft) NO 45 -0,5 C 9,1 C 0,0 km/h (0 Bft)
19.10.2013 03:50 0,4 C 94 % 1017,6 hPa 0,0 l/m 0,0 km/h (0 Bft) NO 45 -0,5 C 9,1 C 0,0 km/h (0 Bft)
19.10.2013 03:55 0,0 C 94 % 1017,6 hPa 0,0 l/m 0,0 km/h (0 Bft) NO 45 -0,8 C 9,1 C 0,0 km/h (0 Bft)
19.10.2013 04:00 0,2 C 94 % 1017,6 hPa 0,0 l/m 0,0 km/h (0 Bft) NO 45 -0,6 C 9,1 C 0,0 km/h (0 Bft)
19.10.2013 04:05 0,1 C 94 % 1017,6 hPa 0,0 l/m 0,0 km/h (0 Bft) NO 45 -0,7 C 9,1 C 0,0 km/h (0 Bft)
19.10.2013 04:10 0,0 C 94 % 1017,6 hPa 0,0 l/m 0,0 km/h (0 Bft) NO 45 -0,8 C 9,1 C 0,0 km/h (0 Bft)
19.10.2013 04:15 0,2 C 94 % 1017,6 hPa 0,0 l/m 0,0 km/h (0 Bft) NO 45 -0,6 C 9,1 C 0,0 km/h (0 Bft)
19.10.2013 04:20 0,3 C 94 % 1017,6 hPa 0,0 l/m 0,0 km/h (0 Bft) NO 45 -0,5 C 9,1 C 0,0 km/h (0 Bft)
19.10.2013 04:25 0,4 C 95 % 1017,5 hPa 0,0 l/m 0,0 km/h (0 Bft) NO 45 -0,3 C 9,1 C 0,0 km/h (0 Bft)
19.10.2013 04:30 0,2 C 95 % 1017,5 hPa 0,0 l/m 0,0 km/h (0 Bft) NO 45 -0,5 C 9,1 C 0,0 km/h (0 Bft)
19.10.2013 04:35 0,3 C 95 % 1017,5 hPa 0,0 l/m 0,0 km/h (0 Bft) NO 45 -0,4 C 9,1 C 0,0 km/h (0 Bft)
19.10.2013 04:40 0,0 C 94 % 1017,5 hPa 0,0 l/m 0,0 km/h (0 Bft) NO 45 -0,8 C 9,1 C 0,0 km/h (0 Bft)
19.10.2013 04:45 -0,2 C 94 % 1017,6 hPa 0,0 l/m 0,0 km/h (0 Bft) NO 45 -1,0 C 9,1 C 0,0 km/h (0 Bft)
19.10.2013 04:50 -0,2 C 94 % 1017,6 hPa 0,0 l/m 0,0 km/h (0 Bft) NO 45 -1,0 C 9,1 C 0,0 km/h (0 Bft)
19.10.2013 04:55 -0,3 C 94 % 1017,6 hPa 0,0 l/m 0,0 km/h (0 Bft) NO 45 -1,1 C 9,1 C 0,0 km/h (0 Bft)
19.10.2013 05:00 -0,1 C 94 % 1017,6 hPa 0,0 l/m 0,0 km/h (0 Bft) NO 45 -0,9 C 9,1 C 0,0 km/h (0 Bft)
19.10.2013 05:05 0,0 C 95 % 1017,7 hPa 0,0 l/m 0,0 km/h (0 Bft) NO 45 -0,7 C 9,1 C 0,0 km/h (0 Bft)
19.10.2013 05:10 0,1 C 95 % 1017,7 hPa 0,0 l/m 0,0 km/h (0 Bft) NO 45 -0,6 C 9,1 C 0,0 km/h (0 Bft)
19.10.2013 05:15 1,1 C 95 % 1017,7 hPa 0,0 l/m 0,0 km/h (0 Bft) NO 45 0,4 C 9,1 C 0,0 km/h (0 Bft)
19.10.2013 05:20 1,1 C 95 % 1017,7 hPa 0,0 l/m 0,0 km/h (0 Bft) NO 45 0,4 C 9,1 C 0,0 km/h (0 Bft)
19.10.2013 05:25 0,2 C 95 % 1017,6 hPa 0,0 l/m 0,0 km/h (0 Bft) NO 45 -0,5 C 9,1 C 0,0 km/h (0 Bft)
19.10.2013 05:30 0,1 C 95 % 1017,6 hPa 0,0 l/m 0,0 km/h (0 Bft) NO 45 -0,6 C 9,1 C 0,0 km/h (0 Bft)
19.10.2013 05:35 0,0 C 95 % 1017,6 hPa 0,0 l/m 0,0 km/h (0 Bft) NO 45 -0,7 C 9,1 C 0,0 km/h (0 Bft)
19.10.2013 05:40 -0,1 C 95 % 1017,6 hPa 0,0 l/m 0,0 km/h (0 Bft) NO 45 -0,8 C 9,1 C 0,0 km/h (0 Bft)
19.10.2013 05:45 -0,2 C 95 % 1017,7 hPa 0,0 l/m 0,0 km/h (0 Bft) NO 45 -0,9 C 9,1 C 0,0 km/h (0 Bft)
19.10.2013 05:50 -0,1 C 95 % 1017,7 hPa 0,0 l/m 0,0 km/h (0 Bft) NO 45 -0,8 C 9,1 C 0,0 km/h (0 Bft)
19.10.2013 05:55 -0,1 C 95 % 1017,7 hPa 0,0 l/m 0,0 km/h (0 Bft) NO 45 -0,8 C 9,1 C 0,0 km/h (0 Bft)
19.10.2013 06:00 0,0 C 96 % 1017,7 hPa 0,0 l/m 0,0 km/h (0 Bft) NO 45 -0,6 C 9,1 C 0,0 km/h (0 Bft)
19.10.2013 06:05 0,1 C 96 % 1017,5 hPa 0,0 l/m 0,0 km/h (0 Bft) NO 45 -0,5 C 9,1 C 0,0 km/h (0 Bft)
19.10.2013 06:10 -0,1 C 96 % 1017,5 hPa 0,0 l/m 0,0 km/h (0 Bft) NO 45 -0,7 C 9,1 C 0,0 km/h (0 Bft)
19.10.2013 06:15 0,3 C 96 % 1017,5 hPa 0,0 l/m 0,0 km/h (0 Bft) NO 45 -0,3 C 9,1 C 0,0 km/h (0 Bft)
19.10.2013 06:20 0,0 C 96 % 1017,5 hPa 0,0 l/m 0,0 km/h (0 Bft) NO 45 -0,6 C 9,1 C 0,0 km/h (0 Bft)
19.10.2013 06:25 0,3 C 96 % 1017,6 hPa 0,0 l/m 0,0 km/h (0 Bft) NO 45 -0,3 C 9,1 C 0,0 km/h (0 Bft)
19.10.2013 06:30 0,3 C 96 % 1017,6 hPa 0,0 l/m 0,0 km/h (0 Bft) NO 45 -0,3 C 9,1 C 0,0 km/h (0 Bft)
19.10.2013 06:35 0,3 C 96 % 1017,6 hPa 0,0 l/m 0,0 km/h (0 Bft) NO 45 -0,3 C 9,1 C 0,0 km/h (0 Bft)
19.10.2013 06:40 0,4 C 96 % 1017,6 hPa 0,0 l/m 0,0 km/h (0 Bft) NO 45 -0,2 C 9,1 C 0,0 km/h (0 Bft)
19.10.2013 06:45 0,4 C 96 % 1017,6 hPa 0,0 l/m 0,0 km/h (0 Bft) NO 45 -0,2 C 9,1 C 0,0 km/h (0 Bft)
19.10.2013 06:50 0,4 C 96 % 1017,8 hPa 0,0 l/m 0,0 km/h (0 Bft) NO 45 -0,2 C 9,1 C 0,0 km/h (0 Bft)
19.10.2013 06:55 0,2 C 96 % 1017,8 hPa 0,0 l/m 0,0 km/h (0 Bft) NO 45 -0,4 C 9,1 C 0,0 km/h (0 Bft)
19.10.2013 07:00 -0,1 C 96 % 1017,8 hPa 0,0 l/m 0,0 km/h (0 Bft) NO 45 -0,7 C 9,1 C 0,0 km/h (0 Bft)
19.10.2013 07:05 0,4 C 96 % 1017,8 hPa 0,0 l/m 0,0 km/h (0 Bft) NO 45 -0,2 C 9,1 C 0,0 km/h (0 Bft)
19.10.2013 07:10 0,3 C 96 % 1017,7 hPa 0,0 l/m 0,0 km/h (0 Bft) NO 45 -0,3 C 9,1 C 0,0 km/h (0 Bft)
19.10.2013 07:15 0,2 C 96 % 1017,7 hPa 0,0 l/m 0,0 km/h (0 Bft) NO 45 -0,4 C 9,1 C 0,0 km/h (0 Bft)
19.10.2013 07:20 -0,1 C 96 % 1017,7 hPa 0,0 l/m 0,0 km/h (0 Bft) NO 45 -0,7 C 9,1 C 0,0 km/h (0 Bft)
19.10.2013 07:25 0,4 C 96 % 1017,7 hPa 0,0 l/m 0,0 km/h (0 Bft) NO 45 -0,2 C 9,1 C 0,0 km/h (0 Bft)
19.10.2013 07:30 0,3 C 96 % 1017,8 hPa 0,0 l/m 0,0 km/h (0 Bft) NO 45 -0,3 C 9,1 C 0,0 km/h (0 Bft)
19.10.2013 07:35 0,2 C 97 % 1017,8 hPa 0,0 l/m 0,0 km/h (0 Bft) NO 45 -0,2 C 9,1 C 0,0 km/h (0 Bft)
19.10.2013 07:40 0,1 C 97 % 1017,8 hPa 0,0 l/m 0,0 km/h (0 Bft) NO 45 -0,3 C 9,1 C 0,0 km/h (0 Bft)
19.10.2013 07:45 0,5 C 97 % 1017,8 hPa 0,0 l/m 0,0 km/h (0 Bft) NO 45 0,1 C 9,1 C 0,0 km/h (0 Bft)
19.10.2013 07:50 0,3 C 97 % 1018,0 hPa 0,0 l/m 0,0 km/h (0 Bft) NO 45 -0,1 C 9,1 C 0,0 km/h (0 Bft)
19.10.2013 07:55 0,2 C 97 % 1018,0 hPa 0,0 l/m 0,0 km/h (0 Bft) NO 45 -0,2 C 9,1 C 0,0 km/h (0 Bft)
19.10.2013 07:58 0,2 C 97 % 1018,0 hPa 0,0 l/m 0,0 km/h (0 Bft) NO 45 -0,2 C 9,1 C 0,0 km/h (0 Bft)
19.10.2013 08:00 0,4 C 97 % 1018,0 hPa 0,0 l/m 0,0 km/h (0 Bft) NO 45 -0,0 C 9,1 C 0,0 km/h (0 Bft)
19.10.2013 08:05 0,4 C 97 % 1018,0 hPa 0,0 l/m 0,0 km/h (0 Bft) NO 45 -0,0 C 9,1 C 0,0 km/h (0 Bft)
19.10.2013 08:10 0,3 C 97 % 1018,0 hPa 0,0 l/m 0,0 km/h (0 Bft) NO 45 -0,1 C 9,1 C 0,0 km/h (0 Bft)
19.10.2013 08:15 0,5 C 97 % 1018,0 hPa 0,0 l/m 0,0 km/h (0 Bft) NO 45 0,1 C 9,1 C 0,0 km/h (0 Bft)
19.10.2013 08:20 0,5 C 97 % 1018,0 hPa 0,0 l/m 0,0 km/h (0 Bft) NO 45 0,1 C 9,1 C 0,0 km/h (0 Bft)
19.10.2013 08:25 0,7 C 97 % 1018,0 hPa 0,0 l/m 0,0 km/h (0 Bft) NO 45 0,3 C 9,1 C 0,0 km/h (0 Bft)
19.10.2013 08:30 0,8 C 97 % 1018,0 hPa 0,0 l/m 0,0 km/h (0 Bft) NO 45 0,4 C 9,1 C 0,0 km/h (0 Bft)
19.10.2013 08:35 0,8 C 97 % 1018,0 hPa 0,0 l/m 0,0 km/h (0 Bft) NO 45 0,4 C 9,1 C 0,0 km/h (0 Bft)
19.10.2013 08:40 1,1 C 97 % 1018,0 hPa 0,0 l/m 0,0 km/h (0 Bft) NO 45 0,7 C 9,1 C 0,0 km/h (0 Bft)
19.10.2013 08:45 1,2 C 97 % 1018,0 hPa 0,0 l/m 0,0 km/h (0 Bft) NO 45 0,8 C 9,1 C 0,0 km/h (0 Bft)
19.10.2013 08:50 1,3 C 97 % 1018,0 hPa 0,0 l/m 0,0 km/h (0 Bft) NO 45 0,9 C 9,1 C 0,0 km/h (0 Bft)
19.10.2013 08:55 1,9 C 97 % 1018,0 hPa 0,0 l/m 0,0 km/h (0 Bft) NO 45 1,5 C 9,1 C 0,0 km/h (0 Bft)
19.10.2013 09:00 2,0 C 97 % 1018,0 hPa 0,0 l/m 0,0 km/h (0 Bft) NO 45 1,6 C 9,1 C 0,0 km/h (0 Bft)
19.10.2013 09:05 2,0 C 97 % 1018,3 hPa 0,0 l/m 0,0 km/h (0 Bft) NO 45 1,6 C 9,1 C 0,0 km/h (0 Bft)
19.10.2013 09:10 2,2 C 97 % 1018,3 hPa 0,0 l/m 0,0 km/h (0 Bft) NO 45 1,8 C 9,1 C 0,0 km/h (0 Bft)
19.10.2013 09:15 2,1 C 97 % 1018,3 hPa 0,0 l/m 0,0 km/h (0 Bft) NO 45 1,7 C 9,1 C 0,0 km/h (0 Bft)
19.10.2013 09:20 2,3 C 97 % 1018,3 hPa 0,0 l/m 0,0 km/h (0 Bft) NO 45 1,9 C 9,1 C 0,0 km/h (0 Bft)
19.10.2013 09:25 2,6 C 97 % 1018,4 hPa 0,0 l/m 0,0 km/h (0 Bft) NO 45 2,2 C 9,1 C 0,0 km/h (0 Bft)
19.10.2013 09:30 2,9 C 97 % 1018,4 hPa 0,0 l/m 0,0 km/h (0 Bft) NO 45 2,5 C 9,1 C 0,0 km/h (0 Bft)
19.10.2013 09:35 3,5 C 96 % 1018,4 hPa 0,0 l/m 0,0 km/h (0 Bft) NO 45 2,9 C 9,1 C 0,0 km/h (0 Bft)
19.10.2013 09:40 3,5 C 96 % 1018,4 hPa 0,0 l/m 0,0 km/h (0 Bft) NO 45 2,9 C 9,1 C 0,0 km/h (0 Bft)
19.10.2013 09:45 3,8 C 96 % 1018,6 hPa 0,0 l/m 0,0 km/h (0 Bft) NO 45 3,2 C 9,1 C 0,0 km/h (0 Bft)
19.10.2013 09:50 3,8 C 96 % 1018,6 hPa 0,0 l/m 0,0 km/h (0 Bft) NO 45 3,2 C 9,1 C 0,0 km/h (0 Bft)
19.10.2013 09:55 4,1 C 96 % 1018,6 hPa 0,0 l/m 0,0 km/h (0 Bft) NO 45 3,5 C 9,1 C 0,0 km/h (0 Bft)
19.10.2013 10:00 4,4 C 96 % 1018,6 hPa 0,0 l/m 0,6 km/h (0 Bft) O-SO 112 3,8 C 13,1 C 0,0 km/h (0 Bft)
19.10.2013 10:05 4,9 C 96 % 1018,6 hPa 0,0 l/m 0,5 km/h (0 Bft) S 180 4,3 C 12,9 C 2,6 km/h (1 Bft)
19.10.2013 10:10 5,2 C 96 % 1018,6 hPa 0,0 l/m 1,8 km/h (1 Bft) S 180 4,6 C 12,5 C 3,4 km/h (1 Bft)
19.10.2013 10:15 5,6 C 96 % 1018,6 hPa 0,0 l/m 2,6 km/h (1 Bft) O-SO 112 5,0 C 12,1 C 0,0 km/h (0 Bft)
19.10.2013 10:20 5,7 C 96 % 1018,6 hPa 0,0 l/m 1,8 km/h (1 Bft) O-SO 112 5,1 C 11,9 C 4,8 km/h (1 Bft)
19.10.2013 10:25 6,2 C 95 % 1018,9 hPa 0,0 l/m 0,0 km/h (0 Bft) O-SO 112 5,5 C 11,6 C 0,0 km/h (0 Bft)
19.10.2013 10:30 6,4 C 95 % 1018,9 hPa 0,0 l/m 0,8 km/h (0 Bft) SO 135 5,7 C 11,4 C 2,1 km/h (1 Bft)
19.10.2013 10:35 6,6 C 95 % 1018,9 hPa 0,0 l/m 1,0 km/h (0 Bft) S-SO 157 5,9 C 11,6 C 0,0 km/h (0 Bft)
19.10.2013 10:40 6,8 C 95 % 1018,9 hPa 0,0 l/m 1,4 km/h (1 Bft) O 90 6,1 C 12,1 C 5,1 km/h (1 Bft)
19.10.2013 10:45 7,1 C 95 % 1019,2 hPa 0,0 l/m 1,4 km/h (1 Bft) O-SO 112 6,4 C 13,2 C 0,0 km/h (0 Bft)
19.10.2013 10:50 7,2 C 95 % 1019,2 hPa 0,0 l/m 1,1 km/h (1 Bft) O 90 6,5 C 14,2 C 2,4 km/h (1 Bft)
19.10.2013 10:55 7,5 C 95 % 1019,2 hPa 0,0 l/m 1,6 km/h (1 Bft) S 180 6,8 C 15,5 C 3,7 km/h (1 Bft)
19.10.2013 11:00 7,7 C 95 % 1019,2 hPa 0,0 l/m 2,9 km/h (1 Bft) S 180 7,0 C 16,3 C 6,4 km/h (2 Bft)
19.10.2013 11:05 7,9 C 94 % 1019,9 hPa 0,0 l/m 2,9 km/h (1 Bft) O 90 7,0 C 17,2 C 3,4 km/h (1 Bft)
19.10.2013 11:10 8,4 C 94 % 1019,9 hPa 0,0 l/m 2,6 km/h (1 Bft) NO 45 7,5 C 17,4 C 6,6 km/h (2 Bft)
19.10.2013 11:15 9,9 C 93 % 1019,9 hPa 0,0 l/m 1,9 km/h (1 Bft) S 180 8,8 C 18,2 C 4,7 km/h (1 Bft)
19.10.2013 11:20 11,3 C 89 % 1019,9 hPa 0,0 l/m 2,4 km/h (1 Bft) S-SO 157 9,6 C 18,9 C 7,2 km/h (2 Bft)
19.10.2013 11:25 11,6 C 82 % 1020,1 hPa 0,0 l/m 2,7 km/h (1 Bft) SO 135 8,6 C 19,6 C 4,2 km/h (1 Bft)
19.10.2013 11:30 11,0 C 78 % 1020,1 hPa 0,0 l/m 2,6 km/h (1 Bft) NO 45 7,3 C 19,6 C 7,2 km/h (2 Bft)
19.10.2013 11:35 10,7 C 79 % 1020,1 hPa 0,0 l/m 1,8 km/h (1 Bft) O-SO 112 7,2 C 20,0 C 4,7 km/h (1 Bft)
19.10.2013 11:40 10,7 C 79 % 1020,1 hPa 0,0 l/m 1,8 km/h (1 Bft) O-SO 112 7,2 C 20,0 C 4,7 km/h (1 Bft)
19.10.2013 11:45 10,7 C 80 % 1020,1 hPa 0,0 l/m 2,3 km/h (1 Bft) S 180 7,4 C 20,1 C 7,6 km/h (2 Bft)
19.10.2013 11:50 10,8 C 80 % 1020,1 hPa 0,0 l/m 3,4 km/h (1 Bft) O 90 7,5 C 19,3 C 2,4 km/h (1 Bft)
19.10.2013 11:55 10,9 C 79 % 1020,1 hPa 0,0 l/m 3,2 km/h (1 Bft) SO 135 7,4 C 18,9 C 0,0 km/h (0 Bft)
19.10.2013 12:00 11,6 C 78 % 1020,1 hPa 0,0 l/m 2,6 km/h (1 Bft) O-NO 67 7,9 C 18,3 C 4,0 km/h (1 Bft)
19.10.2013 12:05 11,9 C 77 % 1020,1 hPa 0,0 l/m 2,1 km/h (1 Bft) O-NO 67 8,0 C 18,2 C 4,2 km/h (1 Bft)
19.10.2013 12:10 13,1 C 75 % 1020,2 hPa 0,0 l/m 2,3 km/h (1 Bft) O 90 8,8 C 18,4 C 4,5 km/h (1 Bft)
19.10.2013 12:15 12,9 C 77 % 1020,2 hPa 0,0 l/m 2,1 km/h (1 Bft) O-SO 112 9,0 C 19,4 C 1,9 km/h (1 Bft)
19.10.2013 12:20 13,2 C 78 % 1020,2 hPa 0,0 l/m 1,0 km/h (0 Bft) O-NO 67 9,4 C 21,0 C 2,7 km/h (1 Bft)
19.10.2013 12:25 13,4 C 77 % 1020,2 hPa 0,0 l/m 1,1 km/h (1 Bft) O 90 9,5 C 21,5 C 4,5 km/h (1 Bft)
19.10.2013 12:30 13,8 C 74 % 1020,1 hPa 0,0 l/m 2,1 km/h (1 Bft) O-SO 112 9,2 C 21,7 C 0,0 km/h (0 Bft)
19.10.2013 12:35 13,9 C 74 % 1020,1 hPa 0,0 l/m 2,1 km/h (1 Bft) O-SO 112 9,3 C 22,1 C 0,0 km/h (0 Bft)
19.10.2013 12:40 14,3 C 71 % 1020,1 hPa 0,0 l/m 1,9 km/h (1 Bft) NO 45 9,1 C 22,4 C 2,1 km/h (1 Bft)
19.10.2013 12:45 14,5 C 72 % 1020,1 hPa 0,0 l/m 1,8 km/h (1 Bft) S-SO 157 9,5 C 22,6 C 2,6 km/h (1 Bft)
19.10.2013 12:50 14,6 C 68 % 1020,2 hPa 0,0 l/m 2,3 km/h (1 Bft) O 90 8,8 C 23,1 C 3,5 km/h (1 Bft)
19.10.2013 12:53 14,7 C 65 % 1020,2 hPa 0,0 l/m 2,7 km/h (1 Bft) O 90 8,2 C 23,7 C 2,3 km/h (1 Bft)
19.10.2013 12:55 15,1 C 62 % 1020,2 hPa 0,0 l/m 2,7 km/h (1 Bft) S 180 7,9 C 23,9 C 5,6 km/h (1 Bft)
19.10.2013 13:00 15,7 C 66 % 1020,2 hPa 0,0 l/m 2,7 km/h (1 Bft) S 180 9,4 C 23,9 C 5,6 km/h (1 Bft)
19.10.2013 13:05 16,0 C 67 % 1019,9 hPa 0,0 l/m 2,7 km/h (1 Bft) S 180 9,9 C 23,9 C 5,6 km/h (1 Bft)
19.10.2013 13:10 16,2 C 67 % 1019,9 hPa 0,0 l/m 0,0 km/h (0 Bft) S 180 10,1 C 23,9 C 0,0 km/h (0 Bft)
19.10.2013 13:15 16,4 C 62 % 1019,9 hPa 0,0 l/m 0,0 km/h (0 Bft) S 180 9,1 C 23,9 C 0,0 km/h (0 Bft)
19.10.2013 13:20 16,6 C 55 % 1019,9 hPa 0,0 l/m 0,0 km/h (0 Bft) S 180 7,5 C 23,9 C 0,0 km/h (0 Bft)
19.10.2013 13:25 16,8 C 52 % 1020,0 hPa 0,0 l/m 0,0 km/h (0 Bft) S 180 6,9 C 23,9 C 0,0 km/h (0 Bft)
19.10.2013 13:30 16,9 C 53 % 1020,0 hPa 0,0 l/m 0,0 km/h (0 Bft) S 180 7,3 C 23,9 C 0,0 km/h (0 Bft)
19.10.2013 13:35 17,0 C 51 % 1020,0 hPa 0,0 l/m 0,0 km/h (0 Bft) S 180 6,8 C 23,9 C 0,0 km/h (0 Bft)
19.10.2013 13:40 17,5 C 49 % 1020,0 hPa 0,0 l/m 0,0 km/h (0 Bft) S 180 6,7 C 23,9 C 0,0 km/h (0 Bft)
19.10.2013 13:45 18,3 C 45 % 1019,9 hPa 0,0 l/m 0,0 km/h (0 Bft) S 180 6,2 C 23,9 C 0,0 km/h (0 Bft)
19.10.2013 13:50 18,4 C 47 % 1019,9 hPa 0,0 l/m 0,0 km/h (0 Bft) S 180 6,9 C 23,9 C 0,0 km/h (0 Bft)
19.10.2013 13:55 18,4 C 45 % 1019,9 hPa 0,0 l/m 0,0 km/h (0 Bft) S 180 6,3 C 23,9 C 0,0 km/h (0 Bft)
19.10.2013 14:00 18,2 C 47 % 1019,9 hPa 0,0 l/m 0,0 km/h (0 Bft) S 180 6,7 C 23,9 C 0,0 km/h (0 Bft)
19.10.2013 14:05 18,1 C 47 % 1019,9 hPa 0,0 l/m 0,0 km/h (0 Bft) S 180 6,6 C 23,9 C 0,0 km/h (0 Bft)
19.10.2013 14:10 17,9 C 46 % 1019,9 hPa 0,0 l/m 0,0 km/h (0 Bft) S 180 6,1 C 23,9 C 0,0 km/h (0 Bft)
19.10.2013 14:15 17,2 C 47 % 1019,9 hPa 0,0 l/m 0,0 km/h (0 Bft) S 180 5,8 C 23,9 C 0,0 km/h (0 Bft)
19.10.2013 14:20 17,1 C 48 % 1019,9 hPa 0,0 l/m 0,0 km/h (0 Bft) S 180 6,0 C 23,9 C 0,0 km/h (0 Bft)
19.10.2013 14:25 16,8 C 50 % 1019,8 hPa 0,0 l/m 0,0 km/h (0 Bft) S 180 6,3 C 23,9 C 0,0 km/h (0 Bft)
19.10.2013 14:30 16,8 C 50 % 1019,8 hPa 0,0 l/m 0,0 km/h (0 Bft) S 180 6,3 C 23,9 C 0,0 km/h (0 Bft)
19.10.2013 14:35 16,8 C 50 % 1019,8 hPa 0,0 l/m 0,0 km/h (0 Bft) S 180 6,3 C 23,9 C 0,0 km/h (0 Bft)
19.10.2013 14:40 17,1 C 50 % 1019,8 hPa 0,0 l/m 0,0 km/h (0 Bft) S 180 6,6 C 23,9 C 0,0 km/h (0 Bft)
19.10.2013 14:45 16,8 C 51 % 1019,1 hPa 0,0 l/m 0,0 km/h (0 Bft) S 180 6,6 C 23,9 C 0,0 km/h (0 Bft)
19.10.2013 14:50 16,5 C 53 % 1019,1 hPa 0,0 l/m 0,0 km/h (0 Bft) S 180 6,9 C 23,9 C 0,0 km/h (0 Bft)
19.10.2013 14:55 16,6 C 53 % 1019,1 hPa 0,0 l/m 0,0 km/h (0 Bft) S 180 7,0 C 23,9 C 0,0 km/h (0 Bft)
19.10.2013 15:00 16,5 C 54 % 1019,1 hPa 0,0 l/m 0,0 km/h (0 Bft) S 180 7,2 C 23,9 C 0,0 km/h (0 Bft)
19.10.2013 15:05 16,6 C 54 % 1018,8 hPa 0,0 l/m 0,0 km/h (0 Bft) S 180 7,3 C 23,9 C 0,0 km/h (0 Bft)
19.10.2013 15:10 16,8 C 53 % 1018,8 hPa 0,0 l/m 0,0 km/h (0 Bft) S 180 7,2 C 23,9 C 0,0 km/h (0 Bft)
19.10.2013 15:15 17,1 C 52 % 1018,8 hPa 0,0 l/m 0,0 km/h (0 Bft) S 180 7,2 C 23,9 C 0,0 km/h (0 Bft)
19.10.2013 15:20 17,2 C 52 % 1018,8 hPa 0,0 l/m 0,0 km/h (0 Bft) S 180 7,3 C 23,9 C 0,0 km/h (0 Bft)
19.10.2013 15:25 16,9 C 54 % 1018,7 hPa 0,0 l/m 0,0 km/h (0 Bft) S 180 7,5 C 23,9 C 0,0 km/h (0 Bft)
19.10.2013 15:30 16,8 C 55 % 1018,7 hPa 0,0 l/m 0,0 km/h (0 Bft) S 180 7,7 C 23,9 C 0,0 km/h (0 Bft)
19.10.2013 15:35 16,9 C 55 % 1018,7 hPa 0,0 l/m 0,0 km/h (0 Bft) S 180 7,8 C 23,9 C 0,0 km/h (0 Bft)
19.10.2013 15:40 16,7 C 56 % 1018,7 hPa 0,0 l/m 0,0 km/h (0 Bft) S 180 7,9 C 23,9 C 0,0 km/h (0 Bft)
19.10.2013 15:45 16,4 C 57 % 1018,7 hPa 0,0 l/m 0,0 km/h (0 Bft) S 180 7,9 C 23,9 C 0,0 km/h (0 Bft)
19.10.2013 15:50 16,7 C 56 % 1018,7 hPa 0,0 l/m 0,0 km/h (0 Bft) S 180 7,9 C 23,9 C 0,0 km/h (0 Bft)
19.10.2013 15:55 16,4 C 57 % 1018,7 hPa 0,0 l/m 0,0 km/h (0 Bft) S 180 7,9 C 23,9 C 0,0 km/h (0 Bft)
19.10.2013 16:00 16,4 C 57 % 1018,7 hPa 0,0 l/m 0,0 km/h (0 Bft) S 180 7,9 C 23,9 C 0,0 km/h (0 Bft)
19.10.2013 16:05 16,5 C 57 % 1018,7 hPa 0,0 l/m 0,0 km/h (0 Bft) S 180 8,0 C 23,9 C 0,0 km/h (0 Bft)
19.10.2013 16:10 16,5 C 57 % 1018,7 hPa 0,0 l/m 0,0 km/h (0 Bft) S 180 8,0 C 23,9 C 0,0 km/h (0 Bft)
19.10.2013 16:15 16,0 C 59 % 1018,7 hPa 0,0 l/m 0,0 km/h (0 Bft) S 180 8,0 C 23,9 C 0,0 km/h (0 Bft)
19.10.2013 16:20 16,0 C 59 % 1018,7 hPa 0,0 l/m 0,0 km/h (0 Bft) S 180 8,0 C 23,9 C 0,0 km/h (0 Bft)
19.10.2013 16:25 16,1 C 60 % 1018,8 hPa 0,0 l/m 0,0 km/h (0 Bft) S 180 8,3 C 23,9 C 0,0 km/h (0 Bft)
19.10.2013 16:30 15,9 C 61 % 1018,8 hPa 0,0 l/m 0,0 km/h (0 Bft) S 180 8,4 C 23,9 C 0,0 km/h (0 Bft)
19.10.2013 16:35 15,9 C 62 % 1018,8 hPa 0,0 l/m 0,0 km/h (0 Bft) S 180 8,6 C 23,9 C 0,0 km/h (0 Bft)
19.10.2013 16:40 16,0 C 61 % 1018,8 hPa 0,0 l/m 0,0 km/h (0 Bft) S 180 8,5 C 23,9 C 0,0 km/h (0 Bft)
19.10.2013 16:45 16,0 C 61 % 1018,8 hPa 0,0 l/m 0,0 km/h (0 Bft) S 180 8,5 C 23,9 C 0,0 km/h (0 Bft)
19.10.2013 16:50 16,0 C 63 % 1018,6 hPa 0,0 l/m 0,0 km/h (0 Bft) S 180 9,0 C 23,9 C 0,0 km/h (0 Bft)
19.10.2013 16:55 15,9 C 64 % 1018,6 hPa 0,0 l/m 0,0 km/h (0 Bft) S 180 9,1 C 23,9 C 0,0 km/h (0 Bft)
19.10.2013 17:00 15,9 C 65 % 1018,6 hPa 0,0 l/m 0,0 km/h (0 Bft) S 180 9,3 C 23,9 C 0,0 km/h (0 Bft)
19.10.2013 17:05 15,8 C 64 % 1018,6 hPa 0,0 l/m 0,0 km/h (0 Bft) S 180 9,0 C 23,9 C 0,0 km/h (0 Bft)
19.10.2013 17:10 15,6 C 65 % 1018,6 hPa 0,0 l/m 0,0 km/h (0 Bft) S 180 9,0 C 23,9 C 0,0 km/h (0 Bft)
19.10.2013 17:15 15,6 C 65 % 1018,6 hPa 0,0 l/m 0,0 km/h (0 Bft) S 180 9,0 C 23,9 C 0,0 km/h (0 Bft)
19.10.2013 17:20 15,7 C 65 % 1018,6 hPa 0,0 l/m 0,0 km/h (0 Bft) S 180 9,1 C 23,9 C 0,0 km/h (0 Bft)
19.10.2013 17:25 15,5 C 65 % 1018,6 hPa 0,0 l/m 0,0 km/h (0 Bft) S 180 8,9 C 23,9 C 0,0 km/h (0 Bft)
19.10.2013 17:30 15,4 C 66 % 1018,4 hPa 0,0 l/m 0,0 km/h (0 Bft) S 180 9,1 C 23,9 C 0,0 km/h (0 Bft)
19.10.2013 17:35 15,2 C 66 % 1018,4 hPa 0,0 l/m 0,0 km/h (0 Bft) S 180 8,9 C 23,9 C 0,0 km/h (0 Bft)
19.10.2013 17:40 14,9 C 67 % 1018,4 hPa 0,0 l/m 0,0 km/h (0 Bft) S 180 8,8 C 23,9 C 0,0 km/h (0 Bft)
19.10.2013 17:45 14,7 C 67 % 1018,4 hPa 0,0 l/m 0,0 km/h (0 Bft) S 180 8,6 C 23,9 C 0,0 km/h (0 Bft)
19.10.2013 17:50 14,2 C 68 % 1018,6 hPa 0,0 l/m 0,0 km/h (0 Bft) S 180 8,4 C 23,9 C 0,0 km/h (0 Bft)
19.10.2013 17:53 14,0 C 68 % 1018,6 hPa 0,0 l/m 0,0 km/h (0 Bft) S 180 8,2 C 23,9 C 0,0 km/h (0 Bft)
19.10.2013 17:55 13,7 C 69 % 1018,6 hPa 0,0 l/m 0,0 km/h (0 Bft) S 180 8,1 C 23,9 C 0,0 km/h (0 Bft)
19.10.2013 18:00 13,6 C 69 % 1018,6 hPa 0,0 l/m 0,0 km/h (0 Bft) S 180 8,0 C 23,9 C 0,0 km/h (0 Bft)
19.10.2013 18:05 13,3 C 70 % 1018,6 hPa 0,0 l/m 0,0 km/h (0 Bft) S 180 7,9 C 23,9 C 0,0 km/h (0 Bft)
19.10.2013 18:10 13,1 C 70 % 1018,6 hPa 0,0 l/m 0,0 km/h (0 Bft) S 180 7,8 C 23,9 C 0,0 km/h (0 Bft)
19.10.2013 18:15 13,0 C 71 % 1018,6 hPa 0,0 l/m 0,0 km/h (0 Bft) S 180 7,9 C 23,9 C 0,0 km/h (0 Bft)
19.10.2013 18:20 12,5 C 73 % 1018,6 hPa 0,0 l/m 0,0 km/h (0 Bft) S 180 7,8 C 23,9 C 0,0 km/h (0 Bft)
19.10.2013 18:25 12,2 C 73 % 1018,6 hPa 0,0 l/m 0,0 km/h (0 Bft) S 180 7,5 C 23,9 C 0,0 km/h (0 Bft)
19.10.2013 18:30 12,2 C 74 % 1018,6 hPa 0,0 l/m 0,0 km/h (0 Bft) S 180 7,7 C 23,9 C 0,0 km/h (0 Bft)
19.10.2013 18:35 11,7 C 74 % 1018,6 hPa 0,0 l/m 0,0 km/h (0 Bft) S 180 7,2 C 23,9 C 0,0 km/h (0 Bft)
19.10.2013 18:40 11,3 C 74 % 1018,6 hPa 0,0 l/m 0,0 km/h (0 Bft) S 180 6,8 C 23,9 C 0,0 km/h (0 Bft)
19.10.2013 18:45 11,4 C 73 % 1018,9 hPa 0,0 l/m 0,0 km/h (0 Bft) S 180 6,7 C 23,9 C 0,0 km/h (0 Bft)
19.10.2013 18:50 11,3 C 73 % 1018,9 hPa 0,0 l/m 0,0 km/h (0 Bft) S 180 6,6 C 23,9 C 0,0 km/h (0 Bft)
19.10.2013 18:55 10,7 C 73 % 1018,9 hPa 0,0 l/m 0,0 km/h (0 Bft) S 180 6,1 C 23,9 C 0,0 km/h (0 Bft)
19.10.2013 19:00 10,6 C 74 % 1018,9 hPa 0,0 l/m 0,0 km/h (0 Bft) S 180 6,2 C 23,9 C 0,0 km/h (0 Bft)
19.10.2013 19:05 10,4 C 74 % 1018,9 hPa 0,0 l/m 0,0 km/h (0 Bft) S 180 6,0 C 23,9 C 0,0 km/h (0 Bft)
19.10.2013 19:10 10,5 C 74 % 1018,9 hPa 0,0 l/m 0,0 km/h (0 Bft) S 180 6,1 C 23,9 C 0,0 km/h (0 Bft)
19.10.2013 19:15 10,5 C 75 % 1018,9 hPa 0,0 l/m 0,0 km/h (0 Bft) S 180 6,3 C 23,9 C 0,0 km/h (0 Bft)
19.10.2013 19:20 10,2 C 74 % 1018,9 hPa 0,0 l/m 0,0 km/h (0 Bft) S 180 5,8 C 23,9 C 0,0 km/h (0 Bft)
19.10.2013 19:25 9,9 C 75 % 1018,9 hPa 0,0 l/m 0,0 km/h (0 Bft) S 180 5,7 C 23,9 C 0,0 km/h (0 Bft)
19.10.2013 19:30 9,9 C 75 % 1018,9 hPa 0,0 l/m 0,0 km/h (0 Bft) S 180 5,7 C 23,9 C 0,0 km/h (0 Bft)
19.10.2013 19:35 9,5 C 75 % 1018,9 hPa 0,0 l/m 0,0 km/h (0 Bft) S 180 5,3 C 23,9 C 0,0 km/h (0 Bft)
19.10.2013 19:40 9,4 C 75 % 1018,9 hPa 0,0 l/m 0,0 km/h (0 Bft) S 180 5,2 C 23,9 C 0,0 km/h (0 Bft)
19.10.2013 19:45 9,2 C 76 % 1019,1 hPa 0,0 l/m 0,0 km/h (0 Bft) S 180 5,2 C 23,9 C 0,0 km/h (0 Bft)
19.10.2013 19:50 9,1 C 76 % 1019,1 hPa 0,0 l/m 0,0 km/h (0 Bft) S 180 5,1 C 23,9 C 0,0 km/h (0 Bft)
19.10.2013 19:55 9,1 C 76 % 1019,1 hPa 0,0 l/m 0,0 km/h (0 Bft) S 180 5,1 C 23,9 C 0,0 km/h (0 Bft)
19.10.2013 20:00 9,2 C 76 % 1019,1 hPa 0,0 l/m 0,0 km/h (0 Bft) S 180 5,2 C 23,9 C 0,0 km/h (0 Bft)
19.10.2013 20:05 9,2 C 76 % 1019,2 hPa 0,0 l/m 0,0 km/h (0 Bft) S 180 5,2 C 23,9 C 0,0 km/h (0 Bft)
19.10.2013 20:10 9,1 C 76 % 1019,2 hPa 0,0 l/m 0,0 km/h (0 Bft) S 180 5,1 C 23,9 C 0,0 km/h (0 Bft)
19.10.2013 20:15 8,7 C 76 % 1019,2 hPa 0,0 l/m 0,0 km/h (0 Bft) S 180 4,7 C 23,9 C 0,0 km/h (0 Bft)
19.10.2013 20:20 8,5 C 77 % 1019,2 hPa 0,0 l/m 0,0 km/h (0 Bft) S 180 4,7 C 23,9 C 0,0 km/h (0 Bft)
19.10.2013 20:25 8,7 C 77 % 1019,0 hPa 0,0 l/m 0,0 km/h (0 Bft) S 180 4,9 C 23,9 C 0,0 km/h (0 Bft)
19.10.2013 20:30 8,5 C 77 % 1019,0 hPa 0,0 l/m 0,0 km/h (0 Bft) S 180 4,7 C 23,9 C 0,0 km/h (0 Bft)
19.10.2013 20:35 8,7 C 78 % 1019,0 hPa 0,0 l/m 0,0 km/h (0 Bft) S 180 5,1 C 23,9 C 0,0 km/h (0 Bft)
19.10.2013 20:40 8,4 C 78 % 1019,0 hPa 0,0 l/m 0,0 km/h (0 Bft) S 180 4,8 C 23,9 C 0,0 km/h (0 Bft)
19.10.2013 20:45 8,8 C 78 % 1019,2 hPa 0,0 l/m 0,0 km/h (0 Bft) S 180 5,2 C 23,9 C 0,0 km/h (0 Bft)
19.10.2013 20:50 8,5 C 78 % 1019,2 hPa 0,0 l/m 0,0 km/h (0 Bft) S 180 4,9 C 23,9 C 0,0 km/h (0 Bft)
19.10.2013 20:55 8,3 C 78 % 1019,2 hPa 0,0 l/m 0,0 km/h (0 Bft) S 180 4,7 C 23,9 C 0,0 km/h (0 Bft)
19.10.2013 21:00 8,1 C 78 % 1019,2 hPa 0,0 l/m 0,0 km/h (0 Bft) S 180 4,5 C 23,9 C 0,0 km/h (0 Bft)
19.10.2013 21:05 8,2 C 78 % 1019,0 hPa 0,0 l/m 0,0 km/h (0 Bft) S 180 4,6 C 23,9 C 0,0 km/h (0 Bft)
19.10.2013 21:10 7,9 C 78 % 1019,0 hPa 0,0 l/m 0,0 km/h (0 Bft) S 180 4,3 C 23,9 C 0,0 km/h (0 Bft)
19.10.2013 21:15 7,4 C 78 % 1019,0 hPa 0,0 l/m 0,0 km/h (0 Bft) S 180 3,8 C 23,9 C 0,0 km/h (0 Bft)
19.10.2013 21:20 7,8 C 79 % 1019,0 hPa 0,0 l/m 0,0 km/h (0 Bft) S 180 4,4 C 23,9 C 0,0 km/h (0 Bft)
19.10.2013 21:25 7,6 C 79 % 1019,1 hPa 0,0 l/m 0,0 km/h (0 Bft) S 180 4,2 C 23,9 C 0,0 km/h (0 Bft)
19.10.2013 21:30 7,6 C 79 % 1019,1 hPa 0,0 l/m 0,0 km/h (0 Bft) S 180 4,2 C 23,9 C 0,0 km/h (0 Bft)
19.10.2013 21:35 7,6 C 79 % 1019,1 hPa 0,0 l/m 0,0 km/h (0 Bft) S 180 4,2 C 23,9 C 0,0 km/h (0 Bft)
19.10.2013 21:40 7,8 C 80 % 1019,1 hPa 0,0 l/m 0,0 km/h (0 Bft) S 180 4,6 C 23,9 C 0,0 km/h (0 Bft)
19.10.2013 21:45 7,7 C 79 % 1019,2 hPa 0,0 l/m 0,0 km/h (0 Bft) SO 135 4,3 C 7,9 C 0,0 km/h (0 Bft)
19.10.2013 21:50 7,7 C 79 % 1019,2 hPa 0,0 l/m 0,0 km/h (0 Bft) SO 135 4,3 C 7,9 C 0,0 km/h (0 Bft)
19.10.2013 21:55 7,9 C 80 % 1019,2 hPa 0,0 l/m 0,2 km/h (0 Bft) S-SO 157 4,7 C 7,8 C 2,9 km/h (1 Bft)
19.10.2013 22:00 7,9 C 80 % 1019,2 hPa 0,0 l/m 1,1 km/h (1 Bft) S-SO 157 4,7 C 8,0 C 5,8 km/h (2 Bft)
19.10.2013 22:05 7,7 C 80 % 1019,2 hPa 0,0 l/m 3,1 km/h (1 Bft) S 180 4,5 C 8,3 C 4,7 km/h (1 Bft)
19.10.2013 22:10 8,1 C 81 % 1020,0 hPa 0,0 l/m 1,6 km/h (1 Bft) N 360 5,0 C 8,1 C 0,0 km/h (0 Bft)
19.10.2013 22:15 8,4 C 81 % 1020,0 hPa 0,0 l/m 1,0 km/h (0 Bft) S 180 5,3 C 8,2 C 6,3 km/h (2 Bft)
19.10.2013 22:20 8,8 C 81 % 1020,0 hPa 0,0 l/m 0,8 km/h (0 Bft) O-SO 112 5,7 C 8,7 C 0,0 km/h (0 Bft)
19.10.2013 22:25 8,6 C 80 % 1020,0 hPa 0,0 l/m 0,6 km/h (0 Bft) O-SO 112 5,3 C 9,0 C 1,6 km/h (1 Bft)
19.10.2013 22:30 9,2 C 80 % 1020,2 hPa 0,0 l/m 0,8 km/h (0 Bft) O-SO 112 5,9 C 9,3 C 5,1 km/h (1 Bft)
19.10.2013 22:35 9,3 C 79 % 1020,2 hPa 0,0 l/m 1,3 km/h (1 Bft) NO 45 5,8 C 9,5 C 4,3 km/h (1 Bft)
19.10.2013 22:40 9,0 C 79 % 1020,2 hPa 0,0 l/m 1,4 km/h (1 Bft) SO 135 5,6 C 9,6 C 1,8 km/h (1 Bft)
19.10.2013 22:45 9,1 C 79 % 1020,2 hPa 0,0 l/m 1,0 km/h (0 Bft) O-SO 112 5,7 C 9,6 C 0,0 km/h (0 Bft)
19.10.2013 22:50 9,2 C 79 % 1020,1 hPa 0,0 l/m 0,8 km/h (0 Bft) NO 45 5,8 C 9,5 C 3,1 km/h (1 Bft)
19.10.2013 22:53 9,4 C 79 % 1020,1 hPa 0,0 l/m 1,9 km/h (1 Bft) O 90 5,9 C 9,4 C 3,9 km/h (1 Bft)
19.10.2013 22:55 9,3 C 78 % 1020,1 hPa 0,0 l/m 3,5 km/h (1 Bft) O 90 5,7 C 9,5 C 3,5 km/h (1 Bft)
19.10.2013 23:00 9,6 C 78 % 1020,1 hPa 0,0 l/m 2,7 km/h (1 Bft) O 90 6,0 C 9,5 C 0,0 km/h (0 Bft)
19.10.2013 23:05 9,2 C 77 % 1020,1 hPa 0,0 l/m 1,1 km/h (1 Bft) S 180 5,4 C 9,5 C 0,0 km/h (0 Bft)
19.10.2013 23:10 8,5 C 77 % 1020,1 hPa 0,0 l/m 0,5 km/h (0 Bft) S-SW 202 4,7 C 9,5 C 2,9 km/h (1 Bft)
19.10.2013 23:15 8,2 C 77 % 1020,1 hPa 0,0 l/m 0,5 km/h (0 Bft) O-SO 112 4,4 C 9,1 C 0,0 km/h (0 Bft)
19.10.2013 23:20 8,0 C 78 % 1020,1 hPa 0,0 l/m 0,5 km/h (0 Bft) S 180 4,4 C 9,1 C 0,0 km/h (0 Bft)
19.10.2013 23:25 7,9 C 79 % 1019,9 hPa 0,0 l/m 0,3 km/h (0 Bft) S 180 4,5 C 8,8 C 0,0 km/h (0 Bft)
19.10.2013 23:30 7,7 C 79 % 1019,9 hPa 0,0 l/m 0,2 km/h (0 Bft) O 90 4,3 C 8,6 C 0,0 km/h (0 Bft)
19.10.2013 23:35 7,4 C 79 % 1019,9 hPa 0,0 l/m 0,0 km/h (0 Bft) S 180 4,0 C 8,2 C 0,0 km/h (0 Bft)
19.10.2013 23:40 7,6 C 79 % 1019,9 hPa 0,0 l/m 0,0 km/h (0 Bft) S 180 4,2 C 8,0 C 0,0 km/h (0 Bft)
19.10.2013 23:45 7,2 C 79 % 1019,9 hPa 0,0 l/m 0,0 km/h (0 Bft) O-SO 112 3,8 C 7,7 C 0,0 km/h (0 Bft)
19.10.2013 23:50 6,9 C 80 % 1019,9 hPa 0,0 l/m 0,0 km/h (0 Bft) S-SO 157 3,7 C 7,7 C 0,0 km/h (0 Bft)
19.10.2013 23:55 6,8 C 80 % 1019,9 hPa 0,0 l/m 0,0 km/h (0 Bft) S 180 3,6 C 7,3 C 0,0 km/h (0 Bft)
_ Min-Zeit 04:55 13:55 06:20 - 23:55 - - 04:55 23:55 23:55
Minimum _ -0,3 C 45 % 1017,5 hPa - 0,0 km/h (0 Bft) - - -1,1 C 7,3 C 0,0 km/h (0 Bft)
_ Max-Zeit 13:55 09:30 22:45 23:55 22:55 - - 13:10 21:40 11:45
Maximum _ 18,4 C 97 % 1020,2 hPa 0,0 l/m 3,5 km/h
O (1 Bft)
- - 10,1 C 23,9 C 7,6 km/h
S (2 Bft)
Durchschnitt _ 7,4 C 81 % 1018,8 hPa #0,0 l/m 0,3 km/h (0 Bft) O - 4,1 C 15,5 C 0,6 km/h (0 Bft)